User: anonymous   Login
Location: Albany
(35.0000°S, 118.0000°E)
Time: 03:47:45
(UTC-04:00)
Language:

Cosmos 2227 Rocket - Orbit

View from above orbital plane
View from above orbital plane
View from above satellite
View from above satellite

Ground track
Ground track

The orbit data is extracted from the following two-line orbital elements,

1 22285U 92093B   15146.85095610 -.00000269  00000-0 -11452-3 0  9998
2 22285 071.0218 350.4616 0005295 219.6505 140.4231 14.14968940156119
Epoch (UTC): 26 May 2015 20:25:22
Eccentricity: 0.0005295
inclination: 71.0218°
perigee height: 838 km
apogee height: 846 km
right ascension of ascending node: 350.4616°
argument of perigee: 219.6505°
revolutions per day: 14.14968940
mean anomaly at epoch: 140.4231°
orbit number at epoch: 15611

The dashed part of the orbit path shows where the satellite is in the earth's shadow,  

DLR